Regional Weather Roundup
Issued by NWS Mobile, AL

Home | Current Version | Previous Version | Text Only | Print | Product List | Glossary On
Versions: 1 2 3 4 5 6 7 8 9 10 11 12 13 14 15 16 17 18 19 20 21 22 23 24 25 26 27 28 29 30 31 32 33 34 35 36 37 38 39 40 41 42 43 44 45 46 47 48 49 50
000
ASUS44 KMOB 051416
RWRMOB
REGIONAL WEATHER ROUNDUP
NATIONAL WEATHER SERVICE MOBILE AL
900 AM CDT TUE MAY 05 2015

ALZ061>064-051500-
COASTAL ALABAMA


CITY           SKY/WX    TMP DP  RH WIND       PRES   REMARKS
MOBILE REG APT MOSUNNY   73  59  61 E13       30.23R
BROOKLEY FIELD SUNNY     72  60  66 NE7       30.24R
GULF SHORES    MOSUNNY   73  67  79 E8        30.21S

$$

ALZ051>060-051500-
INTERIOR SOUTHWEST AND SOUTH CENTRAL ALABAMA


CITY           SKY/WX    TMP DP  RH WIND       PRES   REMARKS
ANDALUSIA/OPP  SUNNY     75  59  57 SE6       30.26S
EVERGREEN      SUNNY     70  59  68 E6        30.27R
FLORALA        SUNNY     70  59  68 SE8       30.27S
GREENVILLE     FAIR      72  59  63 SE6       30.27S

$$

FLZ001>006-051500-
WESTERN FLORIDA PANHANDLE


CITY           SKY/WX    TMP DP  RH WIND       PRES   REMARKS
CRESTVIEW      SUNNY     72  61  68 E5        30.26S
DESTIN         SUNNY     74  61  63 E9        30.23S
DUKE FIELD     NOT AVBL
MARY ESTHER    NOT AVBL
MILTON         MOSUNNY   74  61  63 E12       30.24R
PENSACOLA      SUNNY     72  63  73 E7        30.23R
NAS PENSACOLA  MOSUNNY   75  67  76 E13       30.22R
VALPARAISO     NOT AVBL

$$

...MARINE OBSERVATIONS...

STATION/POSITION TIME  SKY/WX   TEMP    WIND        PRES    VSBY
                                AIR SEA DIR/SP/G
                 (UTC)          (F)     (DEG/KT/KT) (MB)    (MI)
PASCAGOULA       1300            71      80/  8/ 10 1022.4R
PETIT BOIS ISL   1300            73      80/ 14/ 18 1022.8R
E DAUPHIN ISLAND 1400            71      70/ 13/ 14 1022.6R
MIDDLE BAY LIGHT 1300            69      80/ 15     1021.7S
USCG MOBILE BAY  1300            68 73   60/  8/ 10 1022.2R
STATE DOCKS      1300            71 70              1023.0R
MEAHER PARK      1400            72     100/  7     1023.0S
FORT MORGAN      1300            71      90/ 10/ 13 1022.3R
12 S ORANGE BCH  1350            74 74   90/ 14/ 17 1022.0R
WVE H/P(F/S)=  4/ 8

PENSACOLA BAY    1300            72 76   40/  4/  8 1023.5R
64 S DAUPHIN ISL 1350            75 75  100/ 17/ 21 1022.0R
WVE H/P(F/S)=  6/ 9

67 S FORT MORGAN 1330            74                 1021.3S
115 SE PENSACOLA 1350            73 75   90/ 16/ 19 1022.1S
WVE H/P(F/S)=  5/ 6

MID GULF/42001   1350            78 79   90/ 16/ 19 1018.6R
WVE H/P(F/S)=  6/ 8

EAST GULF/42003  1350            76 81   70/ 17/ 21 1019.0R
WVE H/P(F/S)=  6/ 7


$$

...NEARBY LOCATIONS

CITY           SKY/WX    TMP DP  RH WIND       PRES   REMARKS
GULFPORT       SUNNY     75  64  68 E12       30.19R
BILOXI         NOT AVBL
PASCAGOULA     SUNNY     74  61  63 E10       30.21R
HATTIESBURG    SUNNY     70  61  73 E6        30.23S
LAUREL         SUNNY     70  59  68 E8        30.24S
MERIDIAN       SUNNY     71  58  63 NE6       30.26S
MERIDIAN NAS   SUNNY     70  58  65 E7        30.27S
MONTGOMERY     SUNNY     71  58  63 E7        30.29S
MAXWELL AFB    NOT AVBL
TROY           SUNNY     72  60  66 SE10      30.29S
FORT RUCKER    SUNNY     73  60  63 E6        30.26S
DALEVILLE      NOT AVBL
DOTHAN         SUNNY     70  58  65 E7        30.31R

$$

...OTHER SURROUNDING LOCATIONS...

CITY           SKY/WX    TMP DP  RH WIND       PRES   REMARKS
BIRMINGHAM     SUNNY     72  56  57 SE6       30.32S
TUSCALOOSA     SUNNY     72  59  63 E3        30.28S
COLUMBUS GA    SUNNY     68  56  65 E6        30.31S
PANAMA CITY    NOT AVBL
TALLAHASSEE    MOSUNNY   76  58  53 E9        30.25S
BATON ROUGE    SUNNY     74  65  73 E10       30.16S
NEW ORLEANS    SUNNY     77  63  61 SE14G22   30.17S
SLIDELL        SUNNY     74  67  78 VRB5      30.18S
JACKSON        SUNNY     73  60  63 E5        30.22R
MCCOMB         SUNNY     72  63  73 E7        30.20R

$$

...SURROUNDING MARINE OBSERVATIONS...

STATION/POSITION TIME  SKY/WX   TEMP    WIND        PRES    VSBY
                                AIR SEA DIR/SP/G
                 (UTC)          (F)     (DEG/KT/KT) (MB)    (MI)
WAVELAND         1300            70 74   80/  9/ 10 1022.1R
PASCAGOULA RGN A 1300            72      70/ 10/ 16 1022.1R
PASCAGOULA PORT  1300               78                N/A
GRAND ISLE       1300            75 75  100/  9/ 15 1020.8R
SOUTHWEST PASS   1400            76     100/ 20/ 22 1021.0R
PILOT STATION E  1300            76 66  100/ 20/ 22 1021.2R
SHELL BEACH      1300            74 74   90/  6/  8 1021.0R
PANAMA CITY      1300            69 75   90/  4/  8 1023.4R
APALACHICOLA     1300            68 70   60/  9/ 11 1023.2R
TYNDALL TOWER C  1400            71      60/ 20/ 21 1022.8S
S APLCHCLA/42036 1350            74 74   80/ 16/ 17 1021.9R
WVE H/P(F/S)=  4/ 6


$$




USA.gov is the U.S. government's official web portal to all federal, state and local government web resources and services.